Regional Weather Roundup
Issued by NWS Mobile, AL

Home | Current Version | Previous Version | Text Only | Print | Product List | Glossary On
Versions: 1 2 3 4 5 6 7 8 9 10 11 12 13 14 15 16 17 18 19 20 21 22 23 24 25 26 27 28 29 30 31 32 33 34 35 36 37 38 39 40 41 42 43 44 45 46 47 48 49 50
000
ASUS44 KMOB 230712
RWRMOB
REGIONAL WEATHER ROUNDUP
NATIONAL WEATHER SERVICE MOBILE AL
200 AM CDT MON APR 23 2018

NOTE: "FAIR" INDICATES FEW OR NO CLOUDS BELOW 12,000 FEET WITH NO
      SIGNIFICANT WEATHER AND/OR OBSTRUCTIONS TO VISIBILITY.

  * THESE STATIONS ARE PART OF THE UNIVERSITY OF SOUTH ALABAMA
    MESONET AND ARE NOT UNDER NWS OR FAA QUALITY CONTROL.

ALZ061>064-230800-
COASTAL ALABAMA

CITY           SKY/WX    TMP DP  RH WIND       PRES   REMARKS
MOBILE REG APT FAIR      62  60  93 CALM      29.92F
BROOKLEY FIELD FAIR      64  63  96 CALM      29.92F
USA CAMPUS*    NOT AVBL
DOG RIVER*     NOT AVBL


CITY           SKY/WX    TMP DP  RH WIND       PRES   REMARKS
GULF SHORES    MOCLDY    67  67 100 W6        29.91S

$$

ALZ051>060-230800-
INTERIOR SOUTHWEST AND SOUTH CENTRAL ALABAMA

CITY           SKY/WX    TMP DP  RH WIND       PRES   REMARKS
GREENVILLE     FAIR      63  59  87 CALM      29.90F FOG
EVERGREEN      FAIR      61  59  93 CALM      29.92F FOG
ATMORE*          N/A    N/A N/A N/A CALM      30.59F
ANDALUSIA/OPP  FAIR      64  61  90 CALM      29.90F FOG
ANDALUSIA*     NOT AVBL
FLORALA APT    CLOUDY    68  65  90 SW6       29.93S
FLORALA*       NOT AVBL

$$

FLZ001>006-230800-
WESTERN FLORIDA PANHANDLE

CITY           SKY/WX    TMP DP  RH WIND       PRES   REMARKS
PENSACOLA      CLOUDY    70  67  90 W6        29.90F
NAS PENSACOLA  MOCLDY    69  66  90 SW5       29.90S
MILTON         NOT AVBL
WHTNG S FIELD  CLOUDY    67  67 100 W3        29.91S


CITY           SKY/WX    TMP DP  RH WIND       PRES   REMARKS
JAY*           NOT AVBL
DUKE FIELD     MOCLDY    68  68 100 S5        29.90F
CRESTVIEW      CLOUDY    67  65  93 CALM      29.92S FOG
VALPARAISO     MOCLDY    69  69 100 SW5       29.89F
DESTIN         CLOUDY    72  68  87 VRB3      29.91S

$$

MSZ076-079-230800-
INTERIOR SOUTHEAST MISSISSIPPI

CITY           SKY/WX    TMP DP  RH WIND       PRES   REMARKS
LEAKESVILLE*   NOT AVBL
AGRICOLA*        N/A     59  59 100 NW2       29.91

$$

MARINE OBSERVATIONS

STATION/POSITION TIME  TEMP    WIND        PRES    WAVE
                       AIR SEA DIR/SP/G            HT/PER
                 (UTC) (F)     (DEG/KT/KT) (MB)    (FT/S)
PETIT BOIS ISLND 0648   67      20/  9/ 11 1013.6F
GRAND BAY        0530   65     360/  4     1014.0S
KATRINA CUT      0630   69      10/  5     1013.2R
CEDAR POINT      0630   69      40/  5       N/A
E DAUPHIN ISLAND 0700   68     360/  3/  4 1012.5F
MIDDLE BAY LIGHT 0630   68      30/  6     1013.2S
USCG MOBILE BAY  0636   65 68  300/  3/  4 1012.9F
STATE DOCKS      0636   65 65              1012.8F
MEAHER PARK      0630   66      20/  2     1012.5F
WEEKS BAY        0545   68                 1013.0S
FORT MORGAN      0648   69     280/  9/ 11   N/A
12 S ORANGE BCH  0650   69     210/  8/ 10 1012.6F   4/ 6
PENSACOLA BAY    0636   69 71  270/  2/  4 1012.7F
64 S DAUPHIN ISL 0650      73  240/ 14/ 16 1013.3F   4/ 6
67 S FORT MORGAN 0530   70                 1013.5F

$$

SELECTED LOCATIONS ACROSS THE REGION

CITY           SKY/WX    TMP DP  RH WIND       PRES   REMARKS
NEW ORLEANS    FAIR      62  52  69 NW10      29.97S
GULFPORT       FAIR      63  59  87 W8        29.92F
PASCAGOULA AP  MOCLDY    62  60  93 CALM      29.91F
PASCAGOULA*    NOT AVBL
HATTIESBURG    CLOUDY    60  57  89 NW8       29.94S
LAUREL         FAIR      57  54  89 W8G16     29.94S
MERIDIAN       FAIR      59  56  89 S5        29.90F
JACKSON        CLOUDY    56  51  84 W7        29.91F
MONTGOMERY     CLOUDY    63  62  97 CALM      29.91F
TROY           CLOUDY    62  62 100 CALM      29.92S FOG
ASHFORD*       NOT AVBL
DOTHAN         CLOUDY    68  66  93 S10       29.95F
PANAMA CITY    CLOUDY    69  67  93 SE5       29.91F

$$




USA.gov is the U.S. government's official web portal to all federal, state and local government web resources and services.